Midland Airpark, TX
on Saturday, October 7, 2017

Saturday
Previous Day Next Day
Daily Summary
 ActualAverage (KMAF)Record (KMAF)
Temperature
Mean Temperature - -  
Max Temperature 81 °F 78 °F 99 °F (1979)
Min Temperature 59 °F 54 °F 38 °F (1976)
Cooling Degree Days 5    
Growing Degree Days20 (Base - )  
Moisture
Dew Point 47 °F   
Average Humidity 45    
Maximum Humidity 76    
Minimum Humidity 19    
Precipitation
Precipitation 0.00 in - - ()
Wind
Wind Speed 7 mph   
Max Wind Speed 14 mph   
Max Gust Speed 22 mph   
Visibility 10 miles   
Events     
Averages and records for this station are not official NWS values.
Key: T is trace of precipitation, MM is missing value
Source: NWS Daily Summary
Seasonal Weather Averages





Time(CDT)TemperatureDew PointHumidity Pressure Visibility Wind DirectionWind SpeedGust SpeedPrecipitationEvents Conditions
12:15 AM 75.2 °F 65.3 °F 71% 29.82 in 10.0 miles South 13.8 mph 18.4 mph N/A   Clear
12:35 AM 74.7 °F 65.3 °F 73% 29.82 in 10.0 miles South 11.5 mph 21.9 mph N/A   Clear
12:55 AM 74.3 °F 65.5 °F 74% 29.82 in 10.0 miles SSW 10.4 mph 17.3 mph N/A   Clear
1:15 AM 73.9 °F 65.7 °F 75% 29.84 in 10.0 miles West 4.6 mph - N/A   Clear
1:35 AM 74.7 °F 66.2 °F 75% 29.88 in 10.0 miles NW 11.5 mph 20.7 mph N/A   Mostly Cloudy
1:55 AM 74.8 °F 66.2 °F 74% 29.89 in 10.0 miles WNW 9.2 mph - N/A   Overcast
2:15 AM 74.5 °F 66.6 °F 76% 29.89 in 10.0 miles West 9.2 mph - N/A   Mostly Cloudy
2:35 AM 74.1 °F 65.8 °F 75% 29.89 in 10.0 miles NW 4.6 mph - N/A   Overcast
2:55 AM 72.9 °F 64.4 °F 75% 29.89 in 10.0 miles NW 4.6 mph - N/A   Scattered Clouds
3:15 AM 71.6 °F 61.0 °F 69% 29.89 in 10.0 miles NNW 8.1 mph - N/A   Scattered Clouds
3:35 AM 71.6 °F 52.2 °F 50% 29.89 in 10.0 miles North 8.1 mph - N/A   Clear
3:55 AM 69.4 °F 48.7 °F 48% 29.88 in 10.0 miles NNW 5.8 mph - N/A   Clear
4:15 AM 68.2 °F 49.1 °F 50% 29.88 in 10.0 miles North 8.1 mph - N/A   Clear
4:35 AM 67.5 °F 42.4 °F 40% 29.89 in 10.0 miles North 10.4 mph 16.1 mph N/A   Clear
4:55 AM 66.7 °F 44.4 °F 44% 29.89 in 10.0 miles NNE 11.5 mph 17.3 mph N/A   Clear
5:15 AM 65.5 °F 47.5 °F 52% 29.90 in 10.0 miles NNE 11.5 mph - N/A   Clear
5:55 AM 64.0 °F 47.3 °F 54% 29.91 in 10.0 miles NNE 10.4 mph 16.1 mph N/A   Clear
6:15 AM 63.5 °F 47.5 °F 56% 29.93 in 10.0 miles North 10.4 mph 17.3 mph N/A   Clear
6:35 AM 61.9 °F 49.5 °F 64% 29.93 in 10.0 miles North 8.1 mph - N/A   Clear
6:55 AM 61.2 °F 49.5 °F 65% 29.93 in 10.0 miles North 10.4 mph - N/A   Clear
7:15 AM 60.4 °F 50.0 °F 68% 29.94 in 10.0 miles North 9.2 mph - N/A   Clear
7:35 AM 59.9 °F 50.2 °F 70% 29.96 in 10.0 miles NNE 3.5 mph - N/A   Clear
7:55 AM 59.2 °F 50.4 °F 73% 29.96 in 10.0 miles North 6.9 mph - N/A   Clear
8:15 AM 59.4 °F 50.9 °F 74% 29.96 in 10.0 miles North 5.8 mph - N/A   Clear
8:35 AM 59.9 °F 51.1 °F 73% 29.97 in 10.0 miles NNW 5.8 mph - N/A   Clear
8:55 AM 61.2 °F 51.1 °F 69% 29.97 in 10.0 miles North 6.9 mph - N/A   Clear
9:15 AM 63.0 °F 50.9 °F 65% 29.99 in 10.0 miles North 9.2 mph - N/A   Clear
9:35 AM 64.8 °F 50.5 °F 60% 30.00 in 10.0 miles North 6.9 mph - N/A   Clear
9:55 AM 66.0 °F 49.5 °F 55% 30.00 in 10.0 miles NNE 5.8 mph - N/A   Clear
10:15 AM 67.3 °F 48.6 °F 51% 30.01 in 10.0 miles NNE 6.9 mph - N/A   Clear
10:35 AM 68.2 °F 49.1 °F 50% 30.01 in 10.0 miles North 5.8 mph - N/A   Clear
10:55 AM 69.6 °F 47.8 °F 46% 30.00 in 10.0 miles NNE 5.8 mph - N/A   Clear
11:15 AM 70.7 °F 47.1 °F 43% 30.00 in 10.0 miles North 5.8 mph - N/A   Clear
11:35 AM 72.5 °F 43.9 °F 36% 30.00 in 10.0 miles North 10.4 mph - N/A   Clear
11:55 AM 74.5 °F 40.8 °F 30% 30.00 in 10.0 miles ENE 6.9 mph - N/A   Clear
12:15 PM 75.7 °F 40.6 °F 28% 30.00 in 10.0 miles NE 9.2 mph - N/A   Clear
12:35 PM 76.1 °F 40.6 °F 28% 29.99 in 10.0 miles East 9.2 mph - N/A   Clear
1:15 PM 76.8 °F 40.3 °F 27% 29.98 in 10.0 miles ENE 3.5 mph - N/A   Clear
1:35 PM 77.2 °F 40.6 °F 27% 29.97 in 10.0 miles NE 6.9 mph - N/A   Clear
1:55 PM 78.1 °F 39.7 °F 25% 29.96 in 10.0 miles ENE 3.5 mph - N/A   Clear
2:15 PM 78.1 °F 39.6 °F 25% 29.96 in 10.0 miles East 3.5 mph - N/A   Clear
2:35 PM 78.6 °F 38.5 °F 24% 29.95 in 10.0 miles Calm Calm - N/A   Clear
2:55 PM 79.7 °F 40.6 °F 25% 29.94 in 10.0 miles SE 5.8 mph - N/A   Clear
3:15 PM 80.1 °F 39.7 °F 24% 29.93 in 10.0 miles Calm Calm - N/A   Clear
3:35 PM 79.3 °F 38.5 °F 23% 29.93 in 10.0 miles SE 4.6 mph - N/A   Clear
3:55 PM 79.7 °F 38.1 °F 23% 29.93 in 10.0 miles ENE 3.5 mph - N/A   Clear
4:15 PM 80.8 °F 36.7 °F 21% 29.92 in 10.0 miles Calm Calm - N/A   Clear
4:35 PM 79.9 °F 36.9 °F 21% 29.92 in 10.0 miles NE 4.6 mph - N/A   Clear
4:55 PM 81.1 °F 35.6 °F 19% 29.91 in 10.0 miles ENE 4.6 mph - N/A   Clear
5:15 PM 80.1 °F 35.2 °F 20% 29.91 in 10.0 miles NW 4.6 mph - N/A   Clear
5:35 PM 79.9 °F 34.7 °F 20% 29.90 in 10.0 miles Calm Calm - N/A   Clear
5:55 PM 80.6 °F 35.6 °F 20% 29.90 in 10.0 miles ENE 5.8 mph - N/A   Clear
6:15 PM 79.7 °F 36.0 °F 21% 29.90 in 10.0 miles NE 4.6 mph - N/A   Clear
6:35 PM 79.3 °F 35.4 °F 20% 29.90 in 10.0 miles Calm Calm - N/A   Clear
6:55 PM 79.2 °F 35.2 °F 20% 29.89 in 10.0 miles East 3.5 mph - N/A   Clear
7:15 PM 76.8 °F 37.0 °F 24% 29.89 in 10.0 miles ENE 3.5 mph - N/A   Clear
7:35 PM 75.6 °F 37.4 °F 25% 29.89 in 10.0 miles ENE 3.5 mph - N/A   Clear
7:55 PM 74.1 °F 40.1 °F 29% 29.89 in 10.0 miles Calm Calm - N/A   Clear
8:15 PM 73.4 °F 39.4 °F 29% 29.89 in 10.0 miles Calm Calm - N/A   Clear
8:35 PM 72.1 °F 41.4 °F 33% 29.89 in 10.0 miles Calm Calm - N/A   Clear
8:55 PM 72.3 °F 40.1 °F 31% 29.89 in 10.0 miles Calm Calm - N/A   Clear
9:15 PM 71.2 °F 41.9 °F 35% 29.89 in 10.0 miles Calm Calm - N/A   Clear
9:35 PM 69.4 °F 43.3 °F 39% 29.89 in 10.0 miles Calm Calm - N/A   Clear
9:55 PM 69.1 °F 43.7 °F 40% 29.89 in 10.0 miles Calm Calm - N/A   Clear
10:15 PM 68.7 °F 46.2 °F 44% 29.89 in 10.0 miles Calm Calm - N/A   Clear
10:35 PM 65.7 °F 49.1 °F 55% 29.89 in 10.0 miles SE 3.5 mph - N/A   Clear
10:55 PM 65.1 °F 47.1 °F 52% 29.89 in 10.0 miles Calm Calm - N/A   Clear
11:15 PM 65.1 °F 47.1 °F 52% 29.89 in 10.0 miles SSE 3.5 mph - N/A   Clear
11:35 PM 65.7 °F 44.2 °F 46% 29.89 in 10.0 miles SE 4.6 mph - N/A   Clear
11:55 PM 64.2 °F 45.5 °F 51% 29.89 in 5.0 miles Calm Calm - N/A   Haze
 Powered By Weather Underground